Location: Keewatin
(47.4004°N, 93.0827°W)
Time: 06:19:29
(UTC+00:00)

Envisat - Pass Details

Date: 08 December 2019
Orbit: 764 x 766 km, 98.1° (Epoch: 20 January)

Event Time Altitude Azimuth Distance (km) Brightness Sun altitude
Rises 00:28:04 0° 179° (S) 3,220 6.4 -20.4°
Reaches altitude 10° 00:30:25 10° 184° (S) 2,298 5.6 -20.8°
Maximum altitude 00:35:22 52° 260° (W) 949 3.8 -21.7°
Drops below altitude 10° 00:40:21 10° 337° (NNW) 2,315 5.6 -22.5°
Sets 00:42:44 0° 343° (NNW) 3,246 6.4 -22.9°
